User: anonymous   Login
Location: Atlantic Beach
(40.5890°N, 73.7290°W)
Time: 01:11:44
(UTC+00:00)
Language:

Envisat - Orbit

View from above orbital plane
View from above orbital plane
View from above satellite
View from above satellite

Ground track
Ground track

The orbit data is extracted from the following two-line orbital elements,

1 27386U 02009A   21062.49585939  .00000026  00000-0  22105-4 0  9992
2 27386  98.1453  61.9854 0001278  93.1793  69.3847 14.38014800995774
Epoch (UTC): 03 March 2021 11:54:02
Eccentricity: 0.0001278
inclination: 98.1453°
perigee height: 764 km
apogee height: 766 km
right ascension of ascending node: 61.9854°
argument of perigee: 93.1793°
revolutions per day: 14.38014800
mean anomaly at epoch: 69.3847°
orbit number at epoch: 99577

The dashed part of the orbit path shows where the satellite is in the earth's shadow,  

DLR